Time,TemperatureF,DewpointF,PressureIn,WindDirection,WindDirectionDegrees,WindSpeedMPH,WindSpeedGustMPH,Humidity,HourlyPrecipIn,Conditions,Clouds,dailyrainin,SoftwareType,DateUTC
2013-05-10 00:03:00,62.0,62.0,29.85,SSW,195,12.0,17.0,99,0.13,,,0.55,,2013-05-10 04:03:00,
2013-05-10 00:12:00,62.0,62.0,29.85,SSW,195,12.0,17.0,99,0.13,,,0.55,,2013-05-10 04:12:00,
2013-05-10 00:23:00,62.0,62.0,29.84,SSW,199,14.0,17.0,99,0.00,,,0.56,,2013-05-10 04:23:00,
2013-05-10 00:33:00,63.0,63.0,29.84,WSW,238,9.0,18.0,99,0.00,,,0.56,,2013-05-10 04:33:00,
2013-05-10 00:42:00,63.0,63.0,29.85,West,260,3.0,10.0,99,0.00,,,0.56,,2013-05-10 04:42:00,
2013-05-10 00:53:00,63.0,63.0,29.85,West,260,3.0,10.0,99,0.00,,,0.56,,2013-05-10 04:53:00,
2013-05-10 01:02:00,63.0,63.0,29.85,WSW,240,8.0,13.0,99,0.00,,,0.56,,2013-05-10 05:02:00,
2013-05-10 01:12:00,63.0,63.0,29.85,SW,227,10.0,13.0,99,0.00,,,0.56,,2013-05-10 05:12:00,
2013-05-10 01:22:00,63.0,63.0,29.85,SW,227,10.0,13.0,99,0.00,,,0.56,,2013-05-10 05:22:00,
2013-05-10 01:32:00,63.0,63.0,29.85,WSW,243,9.0,14.0,99,0.00,,,0.56,,2013-05-10 05:32:00,
2013-05-10 01:42:00,63.0,63.0,29.85,WSW,246,7.0,7.0,99,0.00,,,0.56,,2013-05-10 05:42:00,
2013-05-10 01:52:00,63.0,63.0,29.85,WSW,246,7.0,7.0,99,0.00,,,0.56,,2013-05-10 05:52:00,
2013-05-10 02:01:00,63.0,63.0,29.85,West,276,0.0,10.0,99,0.00,,,0.56,,2013-05-10 06:01:00,
2013-05-10 02:12:00,62.0,62.0,29.85,SW,233,5.0,10.0,99,0.00,,,0.56,,2013-05-10 06:12:00,
2013-05-10 02:21:00,62.0,62.0,29.85,SW,233,5.0,10.0,99,0.00,,,0.56,,2013-05-10 06:21:00,
2013-05-10 02:32:00,62.0,62.0,29.85,SW,219,6.0,10.0,99,0.00,,,0.56,,2013-05-10 06:32:00,
2013-05-10 02:42:00,62.0,62.0,29.84,WSW,237,6.0,10.0,99,0.00,,,0.56,,2013-05-10 06:42:00,
2013-05-10 02:52:00,62.0,62.0,29.84,WSW,237,6.0,10.0,99,0.00,,,0.56,,2013-05-10 06:52:00,
2013-05-10 03:01:00,62.0,62.0,29.84,WSW,237,3.0,9.0,99,0.00,,,0.56,,2013-05-10 07:01:00,
2013-05-10 03:12:00,62.0,62.0,29.84,WSW,237,3.0,9.0,99,0.00,,,0.56,,2013-05-10 07:12:00,
2013-05-10 03:22:00,62.0,62.0,29.84,WSW,239,6.0,8.0,99,0.00,,,0.56,,2013-05-10 07:22:00,
2013-05-10 03:31:00,61.0,61.0,29.84,SW,230,3.0,8.0,99,0.00,,,0.56,,2013-05-10 07:31:00,
2013-05-10 03:42:00,61.0,61.0,29.84,SW,233,3.0,6.0,99,0.00,,,0.56,,2013-05-10 07:42:00,
2013-05-10 03:52:00,61.0,61.0,29.84,SW,233,3.0,6.0,99,0.00,,,0.56,,2013-05-10 07:52:00,
2013-05-10 04:02:00,61.0,61.0,29.83,WSW,242,2.0,7.0,99,0.00,,,0.56,,2013-05-10 08:02:00,
2013-05-10 04:12:00,61.0,61.0,29.83,WSW,242,2.0,7.0,99,0.00,,,0.56,,2013-05-10 08:12:00,
2013-05-10 04:22:00,61.0,61.0,29.83,SW,236,7.0,10.0,99,0.00,,,0.56,,2013-05-10 08:22:00,
2013-05-10 04:32:00,61.0,61.0,29.83,WSW,238,5.0,9.0,99,0.00,,,0.56,,2013-05-10 08:32:00,
2013-05-10 04:42:00,61.0,61.0,29.83,SW,232,5.0,7.0,99,0.00,,,0.56,,2013-05-10 08:42:00,
2013-05-10 04:52:00,61.0,61.0,29.83,SW,232,5.0,7.0,99,0.00,,,0.56,,2013-05-10 08:52:00,
2013-05-10 05:01:00,61.0,61.0,29.83,WSW,237,7.0,8.0,99,0.00,,,0.56,,2013-05-10 09:01:00,
2013-05-10 05:11:00,61.0,61.0,29.83,WSW,237,7.0,8.0,99,0.00,,,0.56,,2013-05-10 09:11:00,
2013-05-10 05:21:00,61.0,61.0,29.82,WSW,242,6.0,9.0,99,0.00,,,0.56,,2013-05-10 09:21:00,
2013-05-10 05:32:00,61.0,61.0,29.82,West,262,6.0,9.0,99,0.00,,,0.56,,2013-05-10 09:32:00,
2013-05-10 05:42:00,61.0,61.0,29.82,West,262,6.0,9.0,99,0.00,,,0.56,,2013-05-10 09:42:00,
2013-05-10 05:52:00,61.0,61.0,29.81,WSW,247,6.0,7.0,99,0.00,,,0.56,,2013-05-10 09:52:00,
2013-05-10 06:02:00,61.0,61.0,29.81,WSW,242,7.0,9.0,99,0.00,,,0.56,,2013-05-10 10:02:00,
2013-05-10 06:12:00,61.0,61.0,29.81,WSW,242,7.0,9.0,99,0.00,,,0.56,,2013-05-10 10:12:00,
2013-05-10 06:23:00,61.0,61.0,29.82,SW,234,6.0,10.0,99,0.00,,,0.56,,2013-05-10 10:23:00,
2013-05-10 06:32:00,61.0,61.0,29.82,WSW,237,3.0,8.0,99,0.00,,,0.56,,2013-05-10 10:32:00,
2013-05-10 06:42:00,61.0,61.0,29.82,WSW,237,3.0,8.0,99,0.00,,,0.56,,2013-05-10 10:42:00,
2013-05-10 06:52:00,61.0,61.0,29.82,West,262,6.0,8.0,99,0.00,,,0.56,,2013-05-10 10:52:00,
2013-05-10 07:02:00,61.0,61.0,29.83,SW,222,0.0,0.0,99,0.00,,,0.56,,2013-05-10 11:02:00,
2013-05-10 07:12:00,61.0,61.0,29.83,WSW,257,6.0,7.0,99,0.00,,,0.56,,2013-05-10 11:12:00,
2013-05-10 07:21:00,61.0,61.0,29.83,WSW,257,6.0,7.0,99,0.00,,,0.56,,2013-05-10 11:21:00,
2013-05-10 07:32:00,62.0,62.0,29.83,WSW,253,8.0,8.0,99,0.00,,,0.56,,2013-05-10 11:32:00,
2013-05-10 07:42:00,62.0,62.0,29.83,WNW,296,5.0,6.0,99,0.00,,,0.56,,2013-05-10 11:42:00,
2013-05-10 07:52:00,62.0,62.0,29.83,WNW,296,5.0,6.0,99,0.00,,,0.56,,2013-05-10 11:52:00,
2013-05-10 08:01:00,62.0,62.0,29.84,West,268,5.0,6.0,99,0.00,,,0.56,,2013-05-10 12:01:00,
2013-05-10 08:11:00,62.0,62.0,29.84,West,268,5.0,6.0,99,0.00,,,0.56,,2013-05-10 12:11:00,
2013-05-10 08:21:00,62.0,62.0,29.84,WNW,289,6.0,8.0,99,0.00,,,0.56,,2013-05-10 12:21:00,
2013-05-10 08:32:00,62.0,62.0,29.83,West,276,3.0,8.0,99,0.00,,,0.56,,2013-05-10 12:32:00,
2013-05-10 08:42:00,62.0,62.0,29.83,West,276,3.0,8.0,99,0.00,,,0.56,,2013-05-10 12:42:00,
2013-05-10 08:52:00,62.0,62.0,29.83,WNW,303,6.0,7.0,99,0.00,,,0.56,,2013-05-10 12:52:00,
2013-05-10 09:01:00,62.0,62.0,29.83,West,277,1.0,7.0,99,0.00,,,0.56,,2013-05-10 13:01:00,
2013-05-10 09:11:00,62.0,62.0,29.83,West,277,1.0,7.0,99,0.00,,,0.56,,2013-05-10 13:11:00,
2013-05-10 09:21:00,63.0,63.0,29.84,WSW,253,7.0,7.0,99,0.00,,,0.56,,2013-05-10 13:21:00,
2013-05-10 09:32:00,63.0,63.0,29.84,WNW,289,0.0,0.0,99,0.00,,,0.56,,2013-05-10 13:32:00,
2013-05-10 09:41:00,63.0,63.0,29.85,West,261,6.0,8.0,99,0.00,,,0.56,,2013-05-10 13:41:00,
2013-05-10 09:52:00,63.0,63.0,29.85,West,261,6.0,8.0,99,0.00,,,0.56,,2013-05-10 13:52:00,
2013-05-10 10:02:00,63.0,63.0,29.85,West,266,6.0,10.0,99,0.00,,,0.56,,2013-05-10 14:02:00,
2013-05-10 10:11:00,63.0,63.0,29.85,West,266,6.0,10.0,99,0.00,,,0.56,,2013-05-10 14:11:00,
2013-05-10 10:21:00,63.0,63.0,29.85,WSW,246,5.0,6.0,99,0.00,,,0.56,,2013-05-10 14:21:00,
2013-05-10 10:32:00,64.0,64.0,29.85,West,280,7.0,9.0,99,0.00,,,0.56,,2013-05-10 14:32:00,
2013-05-10 10:41:00,64.0,64.0,29.85,WNW,292,5.0,8.0,99,0.00,,,0.56,,2013-05-10 14:41:00,
2013-05-10 10:52:00,64.0,64.0,29.85,WNW,292,5.0,8.0,99,0.00,,,0.56,,2013-05-10 14:52:00,
2013-05-10 11:01:00,64.0,64.0,29.85,WNW,291,7.0,7.0,99,0.00,,,0.56,,2013-05-10 15:01:00,
2013-05-10 11:20:00,-999.0,-99.9,29.85,NW,308,9.0,12.0,99,0.00,,,0.56,,2013-05-10 15:20:00,
2013-05-10 11:32:00,65.0,65.0,29.85,WNW,289,7.0,10.0,99,0.00,,,0.56,,2013-05-10 15:32:00,
2013-05-10 11:42:00,66.0,65.0,29.85,NW,326,6.0,9.0,96,0.00,,,0.56,,2013-05-10 15:42:00,
2013-05-10 11:53:00,66.0,65.0,29.85,NW,326,6.0,9.0,96,0.00,,,0.56,,2013-05-10 15:53:00,
2013-05-10 12:02:00,66.0,65.0,29.85,WNW,299,9.0,10.0,96,0.00,,,0.56,,2013-05-10 16:02:00,
2013-05-10 12:12:00,65.0,64.0,29.85,WNW,287,6.0,9.0,96,0.00,,,0.56,,2013-05-10 16:12:00,
2013-05-10 12:23:00,65.0,64.0,29.85,WNW,287,6.0,9.0,96,0.00,,,0.56,,2013-05-10 16:23:00,
2013-05-10 12:32:00,65.0,64.0,29.85,West,281,7.0,10.0,96,0.00,,,0.56,,2013-05-10 16:32:00,
2013-05-10 12:42:00,66.0,65.0,29.85,WNW,293,6.0,8.0,95,0.00,,,0.56,,2013-05-10 16:42:00,
2013-05-10 12:52:00,66.0,65.0,29.85,WNW,293,6.0,8.0,95,0.00,,,0.56,,2013-05-10 16:52:00,
2013-05-10 13:02:00,67.0,65.0,29.85,NW,324,7.0,13.0,94,0.00,,,0.56,,2013-05-10 17:02:00,
2013-05-10 13:12:00,67.0,65.0,29.85,NW,324,7.0,13.0,94,0.00,,,0.56,,2013-05-10 17:12:00,
2013-05-10 13:22:00,68.0,65.0,29.85,NW,305,7.0,9.0,91,0.00,,,0.56,,2013-05-10 17:22:00,
2013-05-10 13:32:00,69.0,66.0,29.85,WNW,285,7.0,12.0,90,0.00,,,0.56,,2013-05-10 17:32:00,
2013-05-10 13:42:00,69.0,65.0,29.86,NNW,341,7.0,12.0,87,0.00,,,0.56,,2013-05-10 17:42:00,
2013-05-10 13:52:00,69.0,65.0,29.86,NNW,341,7.0,12.0,87,0.00,,,0.56,,2013-05-10 17:52:00,
2013-05-10 14:10:00,-999.0,-99.9,29.87,North,0,8.0,12.0,89,0.00,,,0.56,,2013-05-10 18:10:00,
2013-05-10 14:22:00,64.0,62.0,29.87,NNE,22,3.0,5.0,94,0.00,,,0.56,,2013-05-10 18:22:00,
2013-05-10 14:34:00,64.0,63.0,29.87,NW,307,3.0,8.0,96,0.00,,,0.56,,2013-05-10 18:34:00,
2013-05-10 14:43:00,64.0,62.0,29.86,North,350,6.0,7.0,94,0.00,,,0.54,,2013-05-10 18:43:00,
2013-05-10 14:54:00,64.0,62.0,29.86,North,350,6.0,7.0,94,0.00,,,0.54,,2013-05-10 18:54:00,
2013-05-10 15:02:00,64.0,62.0,29.86,North,355,5.0,8.0,94,0.00,,,0.54,,2013-05-10 19:02:00,
2013-05-10 15:11:00,64.0,62.0,29.86,North,355,5.0,8.0,94,0.00,,,0.54,,2013-05-10 19:11:00,
2013-05-10 15:21:00,66.0,64.0,29.85,North,3,5.0,9.0,92,0.00,,,0.53,,2013-05-10 19:21:00,
2013-05-10 15:32:00,66.0,63.0,29.85,North,2,0.0,3.0,91,0.00,,,0.53,,2013-05-10 19:32:00,
2013-05-10 15:42:00,64.0,61.0,29.85,North,9,7.0,13.0,91,0.00,,,0.53,,2013-05-10 19:42:00,
2013-05-10 15:52:00,64.0,61.0,29.85,North,9,7.0,13.0,91,0.00,,,0.53,,2013-05-10 19:52:00,
2013-05-10 16:01:00,64.0,61.0,29.85,NNE,20,6.0,6.0,91,0.00,,,0.53,,2013-05-10 20:01:00,
2013-05-10 16:12:00,64.0,61.0,29.85,NNE,20,6.0,6.0,91,0.00,,,0.53,,2013-05-10 20:12:00,
2013-05-10 16:21:00,63.0,61.0,29.85,North,352,5.0,5.0,92,0.00,,,0.53,,2013-05-10 20:21:00,
2013-05-10 16:32:00,62.0,60.0,29.85,NNE,21,8.0,13.0,92,0.00,,,0.53,,2013-05-10 20:32:00,
2013-05-10 16:41:00,62.0,60.0,29.85,NNE,21,8.0,13.0,92,0.00,,,0.53,,2013-05-10 20:41:00,
2013-05-10 16:52:00,62.0,60.0,29.85,NNW,342,8.0,15.0,92,0.00,,,0.53,,2013-05-10 20:52:00,
2013-05-10 17:01:00,61.0,58.0,29.85,North,10,10.0,13.0,91,0.00,,,0.53,,2013-05-10 21:01:00,
2013-05-10 17:11:00,59.0,57.0,29.86,North,0,7.0,10.0,93,0.00,,,0.53,,2013-05-10 21:11:00,
2013-05-10 17:24:00,59.0,57.0,29.86,North,0,7.0,10.0,93,0.00,,,0.53,,2013-05-10 21:24:00,
2013-05-10 17:32:00,58.0,56.0,29.87,North,6,8.0,14.0,92,0.00,,,0.52,,2013-05-10 21:32:00,
2013-05-10 17:43:00,57.0,55.0,29.87,North,357,6.0,12.0,93,0.00,,,0.50,,2013-05-10 21:43:00,
2013-05-10 17:52:00,57.0,55.0,29.87,North,357,6.0,12.0,93,0.00,,,0.50,,2013-05-10 21:52:00,
2013-05-10 18:02:00,57.0,55.0,29.87,North,4,6.0,8.0,94,0.00,,,0.49,,2013-05-10 22:02:00,
2013-05-10 18:13:00,57.0,55.0,29.87,North,4,6.0,8.0,94,0.00,,,0.49,,2013-05-10 22:13:00,
2013-05-10 18:22:00,55.0,53.0,29.88,North,8,8.0,13.0,93,0.00,,,0.45,,2013-05-10 22:22:00,
2013-05-10 18:32:00,54.0,52.0,29.88,North,6,6.0,8.0,93,0.00,,,0.43,,2013-05-10 22:32:00,
2013-05-10 18:42:00,53.0,51.0,29.88,North,3,5.0,7.0,94,0.00,,,0.41,,2013-05-10 22:42:00,
2013-05-10 18:52:00,53.0,51.0,29.88,North,3,5.0,7.0,94,0.00,,,0.41,,2013-05-10 22:52:00,
2013-05-10 19:02:00,52.0,51.0,29.89,North,6,7.0,10.0,95,0.00,,,0.41,,2013-05-10 23:02:00,
2013-05-10 19:12:00,52.0,51.0,29.89,North,6,7.0,10.0,95,0.00,,,0.41,,2013-05-10 23:12:00,
2013-05-10 19:22:00,52.0,51.0,29.90,North,358,5.0,9.0,95,0.00,,,0.41,,2013-05-10 23:22:00,
2013-05-10 19:32:00,51.0,50.0,29.90,NNE,21,2.0,8.0,95,0.00,,,0.41,,2013-05-10 23:32:00,
2013-05-10 19:41:00,50.0,49.0,29.91,North,350,9.0,16.0,96,0.00,,,0.41,,2013-05-10 23:41:00,
2013-05-10 19:52:00,50.0,49.0,29.91,North,350,9.0,16.0,96,0.00,,,0.41,,2013-05-10 23:52:00,
2013-05-10 20:01:00,50.0,49.0,29.91,North,355,6.0,10.0,96,0.00,,,0.41,,2013-05-11 00:01:00,
2013-05-10 20:11:00,49.0,48.0,29.91,North,357,8.0,12.0,96,0.00,,,0.41,,2013-05-11 00:11:00,
2013-05-10 20:21:00,49.0,48.0,29.91,North,357,8.0,12.0,96,0.00,,,0.41,,2013-05-11 00:21:00,
2013-05-10 20:32:00,49.0,48.0,29.91,NNE,23,5.0,7.0,97,0.00,,,0.41,,2013-05-11 00:32:00,
2013-05-10 20:42:00,49.0,48.0,29.92,North,6,5.0,7.0,98,0.00,,,0.41,,2013-05-11 00:42:00,
2013-05-10 20:52:00,49.0,48.0,29.92,North,6,5.0,7.0,98,0.00,,,0.41,,2013-05-11 00:52:00,
2013-05-10 21:01:00,48.0,47.0,29.92,North,356,2.0,7.0,98,0.00,,,0.41,,2013-05-11 01:01:00,
2013-05-10 21:11:00,48.0,47.0,29.92,North,356,2.0,7.0,98,0.00,,,0.41,,2013-05-11 01:11:00,
2013-05-10 21:21:00,48.0,47.0,29.93,NNW,347,7.0,13.0,98,0.00,,,0.39,,2013-05-11 01:21:00,
2013-05-10 21:31:00,48.0,48.0,29.93,North,9,5.0,9.0,99,0.00,,,0.37,,2013-05-11 01:31:00,
2013-05-10 21:42:00,47.0,47.0,29.93,NNE,16,6.0,9.0,99,0.00,,,0.27,,2013-05-11 01:42:00,
2013-05-10 21:52:00,47.0,47.0,29.93,NNE,16,6.0,9.0,99,0.00,,,0.27,,2013-05-11 01:52:00,
2013-05-10 22:02:00,47.0,47.0,29.94,North,0,5.0,8.0,99,0.00,,,0.22,,2013-05-11 02:02:00,
2013-05-10 22:11:00,47.0,47.0,29.94,North,0,5.0,8.0,99,0.00,,,0.22,,2013-05-11 02:11:00,
2013-05-10 22:21:00,47.0,47.0,29.95,North,6,2.0,9.0,99,0.00,,,0.20,,2013-05-11 02:21:00,
2013-05-10 22:32:00,47.0,47.0,29.95,NNE,13,6.0,14.0,99,0.00,,,0.20,,2013-05-11 02:32:00,
2013-05-10 22:42:00,46.0,46.0,29.95,NNE,18,8.0,10.0,99,0.00,,,0.15,,2013-05-11 02:42:00,
2013-05-10 22:52:00,46.0,46.0,29.95,NNE,18,8.0,10.0,99,0.00,,,0.15,,2013-05-11 02:52:00,
2013-05-10 23:01:00,46.0,46.0,29.96,North,357,8.0,8.0,99,0.00,,,0.14,,2013-05-11 03:01:00,
2013-05-10 23:11:00,46.0,46.0,29.96,North,357,8.0,8.0,99,0.00,,,0.14,,2013-05-11 03:11:00,
2013-05-10 23:21:00,46.0,46.0,29.95,North,7,7.0,10.0,99,0.00,,,0.14,,2013-05-11 03:21:00,
2013-05-10 23:32:00,46.0,46.0,29.95,North,8,6.0,9.0,99,0.00,,,0.13,,2013-05-11 03:32:00,
2013-05-10 23:42:00,46.0,46.0,29.96,North,352,7.0,9.0,99,0.00,,,0.04,,2013-05-11 03:42:00,
2013-05-10 23:53:00,46.0,46.0,29.96,North,352,7.0,9.0,99,0.00,,,0.04,,2013-05-11 03:53:00,